Location: Treviso
(45.6669°N, 12.2430°E)
Time: 23:01:39
(UTC+02:00)

CUBESAT XI-V - Pass Details

Date: 01 May 2019
Orbit: 668 x 694 km, 98.0° (Epoch: 24 May)

Event Time Altitude Azimuth Distance (km) Brightness Sun altitude
Exits shadow 03:06:33 18° 131° (SE) 1,649 ? -23.8°
Maximum altitude 03:09:35 41° 70° (ENE) 991 ? -23.5°
Drops below altitude 10° 03:13:57 10° 0° (N) 2,131 ? -23.1°
Sets 03:16:17 0° 354° (N) 3,046 ? -22.8°
